[[{"header":{"parameterUnit":"m.s-1","parameterCategory":1,"la1":30.2991,"la2":30.254,"lo1":-89.0895,"lo2":-89.0444,"dy":0.0017,"dx":0.0017,"nx":28,"ny":28,"refTime":"2024-04-29T03:00:00:Z","depth":0,"parameterNumber":2,"parameterNumberName":"U-component_of_WINDS"},"data":[0,0,0,0,0,0,0,0,0,0,0,0,0,0,0,0,0,0,0,0,0,0,0,0,0,0,0,0,0,0,0,0,0,0,0,0,0,0,0,0,0,0,0,0,0,0,0,0,0,0,0,0,0,0,0,0,0,0,1.3216,1.3218,0,1.3341,1.3343,1.3344,1.3391,1.3391,1.3391,1.339,1.3517,1.352,1.3524,0,0,0,0,0,0,0,0,0,0,0,0,0,1.3015,1.3019,1.3216,1.3218,1.3219,1.3341,1.3343,1.3345,1.3391,1.3391,1.339,1.339,1.3516,1.352,1.3525,0,0,0,0,0,0,0,0,0,0,0,0,0,1.3118,1.302,1.3216,1.3257,1.3262,1.3341,1.3343,1.3345,1.3392,1.3391,1.339,1.339,1.3514,1.352,1.3525,1.3571,0,0,1.3542,1.3545,0,0,0,0,0,0,0,0,1.3112,1.3125,1.325,1.3255,1.326,1.335,1.3319,1.3421,1.3392,1.3342,1.339,1.339,1.3462,1.3472,1.3496,1.3577,1.3582,1.3543,1.3546,1.3549,1.355,0,0,0,0,0,0,0,1.3105,1.312,1.3266,1.3251,1.3258,1.3269,1.3283,1.3338,1.3404,1.3347,1.335,1.3365,1.3465,1.3491,1.35,1.3584,1.3543,1.3548,1.3551,1.3553,1.3708,1.3709,0,0,0,0,0,0,1.3091,1.3114,1.3262,1.3269,1.3183,1.3273,1.3289,1.3322,1.3403,1.3415,1.3365,1.3366,1.3482,1.3493,1.3504,1.3563,1.3548,1.3554,1.3557,1.3708,1.3708,1.3709,0,0,0,0,0,0,1.3086,1.3104,1.3257,1.3193,1.3213,1.3277,1.3314,1.3325,1.3351,1.3417,1.3429,1.338,1.3482,1.3496,1.3554,1.3568,1.3556,1.3561,1.3707,1.3708,1.3709,1.3681,0,0,0,0,0,0,1.3081,1.3102,1.312,1.3193,1.3216,1.3305,1.3315,1.3328,1.3361,1.3364,1.3434,1.3445,1.3482,1.3545,1.356,1.3576,1.3566,1.3706,1.3707,1.3709,1.3681,1.3681,1.3681,0,0,0,0,0,1.3073,1.3107,1.3121,1.3139,1.3241,1.3305,1.3319,1.3361,1.3362,1.338,1.3423,1.3443,1.3564,1.3551,1.3567,1.3585,1.3705,1.3707,1.3708,1.3681,1.3681,1.3681,0,0,0,0,0,0,1.3034,1.3118,1.3134,1.3192,1.3242,1.3313,1.3338,1.336,1.3409,1.341,1.346,1.3475,1.3529,1.3563,1.3547,1.3634,1.3636,1.3641,1.3609,1.361,1.361,1.36,1.357,0,0,0,0,0,1.3033,1.3079,1.3149,1.3194,1.3218,1.3274,1.3303,1.3332,1.3384,1.3405,1.3452,1.3502,1.3551,1.3582,1.3632,1.3686,1.3702,1.3706,1.3706,1.3706,1.371,1.374,1.3743,1.3715,1.3715,1.3715,0,0,1.3029,1.3081,1.3107,1.3187,1.3229,1.3275,1.3291,1.3339,1.3373,1.3412,1.347,1.3505,1.3564,1.362,1.3648,1.3651,1.3721,1.3708,1.3708,1.3711,1.3742,1.3745,1.3747,1.3716,1.3716,1.3716,0,0,1.3047,1.3091,1.3133,1.3174,1.3237,1.3274,1.3284,1.3352,1.3378,1.3436,1.3466,1.3508,1.3592,1.3633,1.3664,1.3697,1.3717,1.3711,1.3712,1.3741,1.3743,1.3745,1.3756,1.376,1.3715,1.3715,1.3715,0,1.3035,1.3106,1.3151,1.3198,1.3232,1.327,1.3313,1.335,1.3425,1.3448,1.345,1.3556,1.3599,1.3664,1.3672,1.3697,1.3709,1.3703,1.3739,1.3742,1.3745,1.3756,1.376,1.3714,1.3714,1.3714,1.3714,0,1.3088,1.3137,1.3163,1.3235,1.3273,1.3317,1.3368,1.34,1.3425,1.3461,1.352,1.3572,1.3632,1.365,1.3675,1.3719,1.3719,1.373,1.3733,1.3745,1.3757,1.3761,1.3712,1.3712,1.3713,1.3713,0,0,1.3085,1.3181,1.319,1.3223,1.3295,1.3333,1.3379,1.3438,1.3464,1.3515,1.3554,1.3624,1.3634,1.367,1.3699,1.3725,1.3747,1.3733,1.3735,1.3733,1.3799,1.379,1.3794,1.3761,1.3762,1.3763,1.3794,0,1.3111,1.3195,1.3237,1.3302,1.3348,1.3384,1.3424,1.3472,1.3507,1.355,1.3589,1.3637,1.3648,1.367,1.3697,1.3739,1.3761,1.3737,1.3797,1.3799,1.3781,1.38,1.3791,1.3817,1.3798,1.3799,1.38,0,1.3154,1.3204,1.3274,1.3341,1.3361,1.3396,1.3453,1.3494,1.3549,1.3573,1.3613,1.3642,1.369,1.369,1.3758,1.3741,1.3768,1.3792,1.3794,1.3801,1.38,1.3807,1.3827,1.3831,1.3807,1.3807,1.3806,0,1.3143,1.3229,1.3282,1.3309,1.3388,1.3411,1.3445,1.35,1.3532,1.3582,1.3604,1.3659,1.3689,1.373,1.3773,1.3769,1.3836,1.384,1.3856,1.3855,1.3868,1.3867,1.3892,1.3887,1.3886,1.3886,1.3886,0,1.3168,1.321,1.3278,1.3311,1.3358,1.3405,1.345,1.3487,1.3535,1.3574,1.3609,1.3645,1.37,1.3743,1.3777,1.3827,1.384,1.3861,1.3869,1.3857,1.3855,1.3875,1.3874,1.3888,1.3887,1.3887,1.3887,0,1.3165,1.3212,1.3272,1.3342,1.3361,1.3392,1.3451,1.3484,1.3521,1.3571,1.3585,1.3643,1.3695,1.3742,1.3811,1.3834,1.3885,1.3896,1.3867,1.3871,1.3885,1.3883,1.3925,1.3932,1.3921,1.3921,1.3921,0,1.3177,1.321,1.3283,1.3313,1.3346,1.3393,1.3426,1.3474,1.3508,1.3573,1.3597,1.3652,1.3699,1.378,1.3828,1.3881,1.3894,1.3904,1.3902,1.3889,1.3893,1.389,1.3894,1.3904,1.3904,1.3904,1.3904,0,1.3194,1.3216,1.3264,1.332,1.3359,1.3405,1.3453,1.3474,1.3531,1.3567,1.3621,1.3657,1.3728,1.3782,1.384,1.3875,1.3898,1.3904,1.3911,1.3899,1.388,1.389,1.3865,1.3903,1.3903,1.3903,1.3903,1.3903,1.3199,1.323,1.3286,1.3338,1.3378,1.3421,1.3455,1.3497,1.3543,1.3605,1.363,1.3685,1.3739,1.382,1.3854,1.3897,1.3901,1.3911,1.3914,1.3915,1.3913,1.3874,1.3908,1.3908,1.3908,1.3908,1.3908,0,1.3218,1.3256,1.3303,1.3368,1.3408,1.3428,1.3481,1.3513,1.3561,1.361,1.3655,1.3717,1.3769,1.3821,1.3876,1.3901,1.3913,1.3914,1.3912,1.392,1.3906,1.3894,1.3903,1.3903,1.3903,1.3903,1.3903,1.3903,1.3232,1.3285,1.3313,1.3386,1.3424,1.3478,1.3507,1.3547,1.3585,1.3653,1.3697,1.3731,1.3781,1.384,1.3888,1.3902,1.3921,1.3918,1.3935,1.3921,1.3921,1.3921,1.391,1.3922,1.3922,1.3945,1.3946,1.3946]},{"header":{"parameterUnit":"m.s-1","parameterCategory":1,"la1":30.2991,"la2":30.254,"lo1":-89.0895,"lo2":-89.0444,"dy":0.0017,"dx":0.0017,"nx":28,"ny":28,"refTime":"2024-04-29T03:00:00:Z","depth":0,"parameterNumber":3,"parameterNumberName":"V-component_of_WINDS"},"data":[0,0,0,0,0,0,0,0,0,0,0,0,0,0,0,0,0,0,0,0,0,0,0,0,0,0,0,0,0,0,0,0,0,0,0,0,0,0,0,0,0,0,0,0,0,0,0,0,0,0,0,0,0,0,0,0,0,0,2.759,2.759,0,2.7583,2.7583,2.7583,2.7515,2.7513,2.7512,2.751,2.7503,2.7504,2.7505,0,0,0,0,0,0,0,0,0,0,0,0,0,2.7543,2.7544,2.759,2.759,2.759,2.7583,2.7583,2.7583,2.7515,2.7513,2.7511,2.7509,2.7502,2.7504,2.7506,0,0,0,0,0,0,0,0,0,0,0,0,0,2.7553,2.7545,2.759,2.7555,2.7552,2.7583,2.7583,2.7583,2.7516,2.7513,2.7511,2.7508,2.7502,2.7504,2.7506,2.757,0,0,2.7512,2.7513,0,0,0,0,0,0,0,0,2.7552,2.7554,2.756,2.7558,2.7554,2.7547,2.7564,2.7579,2.7516,2.7529,2.751,2.7507,2.752,2.752,2.7524,2.757,2.7569,2.7512,2.7514,2.7515,2.7515,0,0,0,0,0,0,0,2.7552,2.7554,2.7587,2.756,2.7557,2.754,2.7538,2.7566,2.7539,2.7528,2.7523,2.7523,2.7517,2.7523,2.7524,2.7569,2.7512,2.7514,2.7515,2.7516,2.7665,2.7668,0,0,0,0,0,0,2.7556,2.7554,2.7587,2.7587,2.7547,2.7542,2.7541,2.7552,2.7538,2.7534,2.7525,2.752,2.752,2.7521,2.7523,2.7596,2.7515,2.7517,2.7518,2.7662,2.7666,2.7669,0,0,0,0,0,0,2.7555,2.7559,2.7588,2.7569,2.7572,2.7546,2.7559,2.7553,2.7558,2.7536,2.7531,2.7536,2.7518,2.752,2.7558,2.7595,2.7517,2.7519,2.7659,2.7663,2.7667,2.7743,0,0,0,0,0,0,2.7554,2.756,2.7584,2.757,2.7573,2.7624,2.7561,2.7555,2.7562,2.7555,2.7545,2.7541,2.7516,2.7556,2.7561,2.7596,2.7521,2.7656,2.7661,2.7666,2.7737,2.7749,2.776,0,0,0,0,0,2.7553,2.7606,2.7585,2.759,2.7603,2.7626,2.7627,2.7598,2.7565,2.7589,2.7575,2.7541,2.7591,2.756,2.7565,2.7602,2.7653,2.766,2.7666,2.7732,2.7747,2.7759,0,0,0,0,0,0,2.7624,2.7603,2.7581,2.7631,2.7631,2.7614,2.7643,2.7615,2.7624,2.7617,2.7581,2.7579,2.7622,2.7616,2.7583,2.7663,2.7616,2.7623,2.7665,2.7679,2.769,2.769,2.7523,0,0,0,0,0,2.7646,2.7667,2.7647,2.7693,2.7694,2.7669,2.7678,2.7656,2.7654,2.7654,2.7642,2.7642,2.7657,2.7668,2.7681,2.7737,2.7733,2.7764,2.7776,2.7785,2.7791,2.7819,2.7832,2.7689,2.7689,2.7688,0,0,2.7691,2.7682,2.7697,2.7708,2.7705,2.7726,2.767,2.7695,2.7711,2.7658,2.7692,2.7684,2.7681,2.7728,2.7748,2.7724,2.783,2.7793,2.78,2.7801,2.7827,2.784,2.7852,2.7693,2.7692,2.7691,0,0,2.7783,2.7779,2.7816,2.7815,2.7811,2.7794,2.7803,2.7791,2.7784,2.7818,2.7778,2.7797,2.7824,2.7823,2.7826,2.7918,2.7887,2.7924,2.7981,2.8009,2.802,2.803,2.8062,2.8074,2.793,2.7931,2.7931,0,2.7839,2.787,2.7839,2.7867,2.7873,2.7826,2.7863,2.7863,2.7864,2.7868,2.7842,2.7875,2.7869,2.7915,2.7937,2.7942,2.795,2.7924,2.8021,2.8031,2.804,2.8069,2.8081,2.7935,2.7934,2.7934,2.7934,0,2.7939,2.7961,2.7992,2.7993,2.8002,2.8035,2.8009,2.8021,2.7999,2.7984,2.802,2.8012,2.8022,2.8032,2.801,2.8074,2.8059,2.8028,2.798,2.8058,2.8085,2.8097,2.7941,2.794,2.7938,2.7937,0,0,2.8075,2.8059,2.8071,2.807,2.8063,2.808,2.811,2.812,2.8131,2.8134,2.8157,2.8182,2.8152,2.8156,2.8134,2.8158,2.823,2.8123,2.8123,2.8142,2.8299,2.8322,2.8335,2.821,2.8212,2.8214,2.8299,0,2.8162,2.8213,2.8186,2.824,2.826,2.8216,2.8242,2.824,2.8228,2.8242,2.8229,2.8246,2.8207,2.8208,2.8231,2.8217,2.8261,2.821,2.8231,2.8232,2.8231,2.835,2.8374,2.8455,2.8309,2.8311,2.8312,0,2.8271,2.8278,2.8334,2.8322,2.8329,2.8353,2.836,2.8375,2.8372,2.8361,2.8365,2.8337,2.8365,2.8319,2.8358,2.8324,2.8331,2.8325,2.8328,2.8327,2.8276,2.8351,2.848,2.8491,2.8329,2.8328,2.8327,0,2.8363,2.8386,2.8422,2.8424,2.8411,2.8429,2.8425,2.8419,2.8427,2.8432,2.8437,2.8446,2.8451,2.8459,2.8434,2.8403,2.8475,2.8427,2.8466,2.8467,2.8482,2.8481,2.8612,2.8489,2.8489,2.8489,2.8489,0,2.8462,2.8498,2.8463,2.8485,2.8523,2.8492,2.8531,2.8522,2.8518,2.8537,2.85,2.8519,2.8486,2.8501,2.8482,2.8516,2.8519,2.851,2.8505,2.8513,2.8514,2.8516,2.8509,2.8492,2.8492,2.8491,2.849,0,2.8571,2.8549,2.8585,2.857,2.8568,2.8596,2.8584,2.8603,2.8589,2.8614,2.8618,2.8595,2.8611,2.8587,2.8601,2.8588,2.8635,2.8621,2.8636,2.8631,2.8671,2.8667,2.8807,2.8823,2.8691,2.8693,2.8694,0,2.8635,2.8661,2.8649,2.8659,2.8657,2.8674,2.8682,2.8652,2.8661,2.866,2.868,2.8693,2.8702,2.873,2.8714,2.8725,2.871,2.8758,2.8711,2.8719,2.8709,2.8707,2.8709,2.8768,2.8769,2.877,2.8771,0,2.8751,2.8738,2.875,2.8759,2.8768,2.8774,2.8776,2.8787,2.8755,2.8768,2.8784,2.8791,2.8805,2.8818,2.8825,2.882,2.8791,2.8787,2.8796,2.8804,2.8811,2.8806,2.866,2.8783,2.8782,2.8781,2.8781,2.878,2.8837,2.8858,2.8853,2.8868,2.8866,2.8869,2.8887,2.8874,2.8887,2.8896,2.8878,2.8899,2.8895,2.89,2.8899,2.8915,2.8893,2.8907,2.8911,2.8914,2.892,2.881,2.8916,2.8916,2.8915,2.8915,2.8915,0,2.895,2.8944,2.8958,2.8962,2.8974,2.8946,2.8947,2.8958,2.8977,2.8976,2.8985,2.9003,2.9016,2.9002,2.9012,2.9027,2.9014,2.9031,2.9029,2.9028,2.8939,2.8929,2.9041,2.9041,2.9041,2.9041,2.9041,2.9041,2.901,2.9043,2.9031,2.9063,2.9057,2.9077,2.908,2.9082,2.9081,2.9103,2.9114,2.9104,2.9098,2.9107,2.9118,2.9113,2.9118,2.9139,2.913,2.9047,2.9034,2.9022,2.9013,2.9141,2.9141,2.9218,2.9218,2.9219]}]]